Location: Brede
(50.9167°N, 0.6000°E)
Time: 19:37:37
(UTC+00:00)

Vanguard 1 Rocket - Pass Details

Date: 30 November 2020
Orbit: 655 x 4221 km, 34.3° (Epoch: 17 January)

Event Time Altitude Azimuth Distance (km) Brightness Sun altitude
Exits shadow 04:24:30 31° 238° (WSW) 5,122 10.7 -29.5°
Maximum altitude 04:33:46 43° 195° (SSW) 3,826 10.3 -28.0°
Drops below altitude 10° 04:46:18 10° 129° (SE) 4,509 11.6 -26.0°
Sets 04:49:17 0° 122° (ESE) 5,124 12.2 -25.6°
